[[{"header":{"parameterUnit":"m.s-1","parameterCategory":1,"la1":30.2991,"la2":30.254,"lo1":-89.0895,"lo2":-89.0444,"dy":0.0017,"dx":0.0017,"nx":28,"ny":28,"refTime":"2023-08-27T03:00:00:Z","depth":0,"parameterNumber":2,"parameterNumberName":"U-component_of_WINDS"},"data":[0,0,0,0,0,0,0,0,0,0,0,0,0,0,0,0,0,0,0,0,0,0,0,0,0,0,0,0,0,0,0,0,0,0,0,0,0,0,0,0,0,0,0,0,0,0,0,0,0,0,0,0,0,0,0,0,0,0,-1.0878,-1.0877,0,-1.0825,-1.0824,-1.0823,-1.0775,-1.0774,-1.0774,-1.0773,-1.072,-1.0719,-1.0718,0,0,0,0,0,0,0,0,0,0,0,0,0,-1.094,-1.0939,-1.0878,-1.0877,-1.0876,-1.0825,-1.0824,-1.0823,-1.0775,-1.0774,-1.0773,-1.0773,-1.072,-1.0719,-1.0718,0,0,0,0,0,0,0,0,0,0,0,0,0,-1.0902,-1.0938,-1.0878,-1.0846,-1.0842,-1.0825,-1.0824,-1.0823,-1.0775,-1.0774,-1.0773,-1.0772,-1.0721,-1.0719,-1.0718,-1.0728,0,0,-1.0714,-1.0714,0,0,0,0,0,0,0,0,-1.0905,-1.09,-1.0851,-1.0848,-1.0844,-1.0805,-1.0826,-1.0791,-1.0775,-1.0801,-1.0773,-1.0772,-1.0749,-1.0746,-1.0738,-1.0726,-1.0723,-1.0714,-1.0713,-1.0713,-1.0712,0,0,0,0,0,0,0,-1.0907,-1.0902,-1.0857,-1.0851,-1.0846,-1.0835,-1.0829,-1.082,-1.0781,-1.0798,-1.0795,-1.0789,-1.0747,-1.0739,-1.0736,-1.0723,-1.0714,-1.0713,-1.0712,-1.0712,-1.0719,-1.072,0,0,0,0,0,0,-1.0914,-1.0905,-1.0858,-1.0855,-1.0873,-1.0835,-1.0828,-1.0819,-1.0781,-1.0774,-1.079,-1.0787,-1.0742,-1.0738,-1.0734,-1.0744,-1.0713,-1.0712,-1.0711,-1.0718,-1.0719,-1.072,0,0,0,0,0,0,-1.0916,-1.0911,-1.086,-1.0879,-1.0872,-1.0835,-1.0825,-1.0818,-1.081,-1.0774,-1.0767,-1.0788,-1.0741,-1.0736,-1.073,-1.0742,-1.0711,-1.071,-1.0717,-1.0718,-1.072,-1.0764,0,0,0,0,0,0,-1.0918,-1.0911,-1.0914,-1.0879,-1.0871,-1.0857,-1.0826,-1.0818,-1.0808,-1.0803,-1.0771,-1.0765,-1.074,-1.0733,-1.0729,-1.0739,-1.0709,-1.0716,-1.0717,-1.0719,-1.0762,-1.0767,-1.0772,0,0,0,0,0,-1.092,-1.0928,-1.0914,-1.0909,-1.0873,-1.0858,-1.0853,-1.0823,-1.0809,-1.0812,-1.0789,-1.0766,-1.0741,-1.0732,-1.0728,-1.0738,-1.0715,-1.0717,-1.0719,-1.076,-1.0766,-1.0772,0,0,0,0,0,0,-1.0965,-1.0923,-1.0907,-1.0904,-1.0885,-1.0849,-1.0852,-1.0831,-1.0816,-1.0812,-1.0777,-1.077,-1.0769,-1.0753,-1.0744,-1.0747,-1.0725,-1.0727,-1.0757,-1.0763,-1.0768,-1.0772,-1.0708,0,0,0,0,0,-1.0974,-1.0965,-1.0929,-1.093,-1.0921,-1.0889,-1.0881,-1.086,-1.0839,-1.083,-1.0807,-1.0788,-1.0776,-1.0769,-1.0756,-1.076,-1.0753,-1.0765,-1.077,-1.0775,-1.0776,-1.0779,-1.0784,-1.0727,-1.0727,-1.0727,0,0,-1.0994,-1.097,-1.0966,-1.0938,-1.0921,-1.0913,-1.0882,-1.0874,-1.0868,-1.0829,-1.0823,-1.0806,-1.0782,-1.0782,-1.0781,-1.0769,-1.079,-1.0777,-1.0781,-1.078,-1.0781,-1.0787,-1.0792,-1.0729,-1.0728,-1.0728,0,0,-1.1025,-1.1006,-1.1005,-1.0989,-1.0963,-1.0942,-1.0942,-1.091,-1.0898,-1.0891,-1.0862,-1.0856,-1.0835,-1.082,-1.081,-1.084,-1.0818,-1.0836,-1.0862,-1.0866,-1.087,-1.0874,-1.0885,-1.0889,-1.0838,-1.0838,-1.0838,0,-1.1052,-1.1038,-1.1007,-1.1002,-1.0991,-1.0957,-1.0957,-1.0943,-1.0915,-1.0909,-1.0896,-1.0872,-1.0853,-1.085,-1.0858,-1.085,-1.085,-1.0839,-1.0872,-1.0875,-1.0878,-1.0889,-1.0893,-1.0841,-1.084,-1.084,-1.084,0,-1.1073,-1.1064,-1.1067,-1.1041,-1.1031,-1.1029,-1.0999,-1.0993,-1.0974,-1.0955,-1.095,-1.0927,-1.091,-1.0908,-1.0889,-1.0903,-1.0896,-1.0878,-1.0855,-1.0887,-1.0896,-1.09,-1.0844,-1.0843,-1.0843,-1.0842,0,0,-1.1128,-1.1088,-1.1089,-1.1078,-1.1049,-1.1042,-1.1039,-1.1022,-1.1018,-1.1001,-1.0998,-1.0984,-1.0968,-1.0956,-1.0936,-1.0939,-1.0965,-1.0921,-1.092,-1.093,-1.098,-1.0994,-1.0999,-1.0951,-1.0952,-1.0953,-1.0982,0,-1.1155,-1.1146,-1.112,-1.112,-1.1112,-1.1081,-1.1079,-1.1062,-1.1045,-1.1036,-1.1017,-1.1008,-1.0987,-1.098,-1.0982,-1.0962,-1.0975,-1.0959,-1.0949,-1.0949,-1.0955,-1.1003,-1.1017,-1.1046,-1.0986,-1.0986,-1.0987,0,-1.1183,-1.1169,-1.1168,-1.1142,-1.1137,-1.1136,-1.112,-1.1112,-1.1093,-1.108,-1.1069,-1.1047,-1.1044,-1.1023,-1.1019,-1.1009,-1.1004,-1.0994,-1.0995,-1.0992,-1.0969,-1.1002,-1.1054,-1.1059,-1.0992,-1.0991,-1.0991,0,-1.1225,-1.1205,-1.1202,-1.1194,-1.1162,-1.1162,-1.1149,-1.1129,-1.1122,-1.1108,-1.1103,-1.109,-1.1083,-1.1073,-1.1049,-1.1036,-1.1048,-1.1025,-1.1038,-1.1039,-1.1041,-1.1041,-1.1093,-1.1039,-1.1039,-1.1039,-1.1039,0,-1.1256,-1.1257,-1.1221,-1.1219,-1.122,-1.1191,-1.1193,-1.1178,-1.1161,-1.1157,-1.1129,-1.1126,-1.1095,-1.1088,-1.107,-1.107,-1.1067,-1.1057,-1.1052,-1.1059,-1.1061,-1.1055,-1.1052,-1.104,-1.1039,-1.1039,-1.1039,0,-1.1301,-1.1277,-1.1272,-1.1244,-1.1237,-1.1239,-1.1215,-1.1213,-1.1196,-1.1191,-1.1188,-1.1161,-1.1152,-1.1128,-1.1113,-1.11,-1.1106,-1.1097,-1.1112,-1.1109,-1.1124,-1.1123,-1.1174,-1.1179,-1.1121,-1.1122,-1.1122,0,-1.1323,-1.1323,-1.1295,-1.1291,-1.1279,-1.1272,-1.1265,-1.1237,-1.1231,-1.1211,-1.1212,-1.1202,-1.1192,-1.118,-1.1159,-1.1148,-1.1138,-1.1157,-1.1136,-1.1144,-1.1139,-1.1139,-1.114,-1.1161,-1.1162,-1.1163,-1.1163,0,-1.1364,-1.1353,-1.1343,-1.133,-1.1322,-1.131,-1.1297,-1.1295,-1.1265,-1.1259,-1.1251,-1.1243,-1.1229,-1.1219,-1.1206,-1.1194,-1.1174,-1.117,-1.1173,-1.118,-1.1189,-1.1185,-1.1124,-1.1169,-1.1168,-1.1168,-1.1167,-1.1167,-1.1398,-1.1398,-1.1379,-1.1369,-1.1357,-1.1346,-1.1343,-1.1326,-1.1318,-1.1304,-1.1289,-1.1283,-1.1266,-1.1246,-1.1236,-1.1231,-1.122,-1.1224,-1.1224,-1.1226,-1.1229,-1.1191,-1.1228,-1.1228,-1.1228,-1.1228,-1.1228,0,-1.1438,-1.1425,-1.1417,-1.14,-1.1394,-1.1376,-1.1362,-1.1357,-1.1352,-1.1338,-1.1329,-1.132,-1.1312,-1.1291,-1.1281,-1.1281,-1.1272,-1.128,-1.1279,-1.1277,-1.1239,-1.1238,-1.1287,-1.1287,-1.1287,-1.1287,-1.1287,-1.1287,-1.1459,-1.1457,-1.1444,-1.1437,-1.1424,-1.1417,-1.1411,-1.1401,-1.139,-1.1382,-1.1374,-1.1361,-1.1345,-1.1334,-1.1326,-1.132,-1.1318,-1.1328,-1.132,-1.1285,-1.1279,-1.1274,-1.1273,-1.1328,-1.1328,-1.1358,-1.1358,-1.1358]},{"header":{"parameterUnit":"m.s-1","parameterCategory":1,"la1":30.2991,"la2":30.254,"lo1":-89.0895,"lo2":-89.0444,"dy":0.0017,"dx":0.0017,"nx":28,"ny":28,"refTime":"2023-08-27T03:00:00:Z","depth":0,"parameterNumber":3,"parameterNumberName":"V-component_of_WINDS"},"data":[0,0,0,0,0,0,0,0,0,0,0,0,0,0,0,0,0,0,0,0,0,0,0,0,0,0,0,0,0,0,0,0,0,0,0,0,0,0,0,0,0,0,0,0,0,0,0,0,0,0,0,0,0,0,0,0,0,0,3.6651,3.6652,0,3.6678,3.6679,3.6679,3.673,3.6731,3.6732,3.6733,3.6757,3.6756,3.6756,0,0,0,0,0,0,0,0,0,0,0,0,0,3.6642,3.6642,3.6651,3.6652,3.6652,3.6678,3.6679,3.6679,3.673,3.6731,3.6732,3.6734,3.6757,3.6756,3.6756,0,0,0,0,0,0,0,0,0,0,0,0,0,3.6655,3.6642,3.6651,3.6681,3.6684,3.6678,3.6679,3.6679,3.673,3.6731,3.6733,3.6734,3.6757,3.6757,3.6756,3.6723,0,0,3.6755,3.6754,0,0,0,0,0,0,0,0,3.6654,3.6655,3.6676,3.6679,3.6682,3.6703,3.6684,3.6694,3.6729,3.6712,3.6733,3.6735,3.6737,3.6738,3.674,3.6724,3.6725,3.6755,3.6754,3.6754,3.6754,0,0,0,0,0,0,0,3.6653,3.6654,3.6662,3.6676,3.668,3.6692,3.6695,3.6686,3.6716,3.6714,3.6717,3.672,3.6739,3.674,3.6741,3.6725,3.6755,3.6754,3.6754,3.6754,3.6684,3.6683,0,0,0,0,0,0,3.6648,3.6653,3.6661,3.6663,3.6672,3.6691,3.6695,3.6694,3.6716,3.6721,3.6719,3.6722,3.674,3.6741,3.6742,3.6705,3.6754,3.6754,3.6753,3.6686,3.6684,3.6682,0,0,0,0,0,0,3.6648,3.6649,3.666,3.6659,3.6661,3.6689,3.6688,3.6694,3.6695,3.672,3.6725,3.6715,3.6742,3.6743,3.6728,3.6706,3.6753,3.6753,3.6687,3.6685,3.6683,3.6629,0,0,0,0,0,0,3.6647,3.6648,3.6636,3.6658,3.6661,3.6646,3.6687,3.6693,3.6695,3.67,3.6718,3.6722,3.6743,3.6728,3.6727,3.6706,3.6753,3.6689,3.6686,3.6684,3.6633,3.6625,3.6619,0,0,0,0,0,3.6647,3.6619,3.6635,3.6636,3.6647,3.6644,3.6646,3.6672,3.6693,3.6681,3.6697,3.6721,3.6709,3.6726,3.6726,3.6704,3.6691,3.6687,3.6684,3.6636,3.6627,3.6619,0,0,0,0,0,0,3.6592,3.6622,3.6641,3.6619,3.6629,3.6653,3.6638,3.6661,3.6664,3.6668,3.6699,3.6703,3.6683,3.6693,3.6711,3.6674,3.6704,3.67,3.6668,3.6659,3.6652,3.665,3.6752,0,0,0,0,0,3.6577,3.6573,3.66,3.6579,3.6583,3.661,3.6609,3.6629,3.664,3.6643,3.6658,3.6667,3.6665,3.6663,3.6663,3.6635,3.664,3.662,3.6613,3.6607,3.6603,3.6589,3.6581,3.667,3.667,3.667,0,0,3.6547,3.6563,3.6558,3.6568,3.6578,3.6572,3.6613,3.6605,3.6601,3.6642,3.6629,3.664,3.6652,3.6631,3.6622,3.6638,3.658,3.6603,3.6598,3.6597,3.6585,3.6576,3.6569,3.6668,3.6668,3.6669,0,0,3.6488,3.6501,3.6484,3.6494,3.6509,3.6527,3.6524,3.6545,3.6554,3.6542,3.6573,3.6568,3.6565,3.6572,3.6575,3.6521,3.6544,3.652,3.6482,3.6469,3.6462,3.6455,3.6436,3.6428,3.6516,3.6516,3.6516,0,3.6448,3.6442,3.6473,3.6464,3.6467,3.6506,3.6489,3.6497,3.651,3.6511,3.6529,3.6526,3.6536,3.6517,3.6505,3.6506,3.6502,3.6517,3.646,3.6455,3.6449,3.6431,3.6423,3.6513,3.6514,3.6514,3.6514,0,3.6392,3.6387,3.6372,3.6386,3.6387,3.6374,3.6402,3.64,3.642,3.6437,3.6424,3.6438,3.6442,3.6439,3.6458,3.6423,3.6432,3.6455,3.6486,3.6437,3.642,3.6413,3.6509,3.651,3.6511,3.6512,0,0,3.6297,3.633,3.6323,3.633,3.6351,3.6347,3.6336,3.6341,3.6338,3.6347,3.6338,3.6335,3.6356,3.636,3.638,3.6368,3.6324,3.6392,3.6393,3.6378,3.6286,3.6268,3.626,3.634,3.6339,3.6338,3.6285,0,3.6242,3.6226,3.6254,3.623,3.6226,3.6264,3.6255,3.6266,3.6281,3.628,3.6296,3.6294,3.6323,3.6325,3.6315,3.6332,3.6306,3.6336,3.6331,3.633,3.6325,3.6251,3.6232,3.6181,3.6279,3.6278,3.6277,0,3.6175,3.6182,3.6158,3.6181,3.6181,3.6171,3.6179,3.6177,3.619,3.6203,3.6207,3.6232,3.6222,3.6254,3.624,3.626,3.626,3.6268,3.6266,3.6265,3.6299,3.6247,3.6165,3.6157,3.6267,3.6268,3.6268,0,3.6107,3.6111,3.6097,3.6102,3.6128,3.6121,3.6132,3.6147,3.6148,3.6155,3.6156,3.616,3.6162,3.6165,3.619,3.6211,3.6173,3.6207,3.6182,3.6181,3.6171,3.6171,3.6087,3.6173,3.6173,3.6173,3.6173,0,3.6042,3.6026,3.6067,3.6059,3.6042,3.6075,3.6057,3.6071,3.6085,3.6079,3.6113,3.6106,3.6141,3.6138,3.6158,3.6143,3.6144,3.6153,3.6158,3.6149,3.6148,3.6148,3.6152,3.6171,3.6172,3.6172,3.6172,0,3.5962,3.599,3.5977,3.6004,3.6011,3.5997,3.602,3.6013,3.6031,3.6024,3.6024,3.6053,3.6052,3.6078,3.6081,3.6094,3.6071,3.6083,3.6066,3.607,3.6043,3.6045,3.5955,3.5945,3.6038,3.6038,3.6037,0,3.5918,3.5907,3.5933,3.5933,3.5942,3.594,3.5943,3.5975,3.5976,3.5991,3.5982,3.5984,3.5987,3.5984,3.6004,3.6007,3.6019,3.5988,3.6019,3.6011,3.6017,3.6017,3.6016,3.598,3.5979,3.5978,3.5977,0,3.5837,3.5851,3.5854,3.5861,3.5864,3.5871,3.588,3.5877,3.5912,3.5912,3.5912,3.5915,3.5919,3.5921,3.5928,3.5938,3.5963,3.5967,3.5962,3.5952,3.5942,3.5946,3.6047,3.5969,3.5969,3.597,3.5971,3.5971,3.5773,3.5765,3.5783,3.5784,3.5795,3.5803,3.5798,3.5817,3.5818,3.5826,3.5845,3.5842,3.5856,3.5869,3.5877,3.5874,3.589,3.5882,3.5879,3.5877,3.5871,3.5944,3.5876,3.5876,3.5877,3.5877,3.5877,0,3.5693,3.5706,3.5708,3.5721,3.5722,3.5748,3.576,3.5759,3.5756,3.5768,3.5771,3.5772,3.5774,3.5795,3.5799,3.5793,3.5805,3.5793,3.5793,3.5795,3.5858,3.5862,3.5784,3.5784,3.5784,3.5784,3.5784,3.5784,3.5651,3.5639,3.5655,3.5649,3.5663,3.5661,3.5666,3.5673,3.5683,3.5682,3.5685,3.57,3.5715,3.5721,3.5724,3.573,3.573,3.5714,3.5724,3.5782,3.579,3.5799,3.5803,3.5714,3.5714,3.5661,3.5661,3.5661]}]]